Погода в Ферраре

Италия     44°49′43″N   11°36′45″E
темп.,
°C
ветер,
м/с
пор.,
м/с
влажн.,
%
обл.,
%
осадки,
мм/ч
давл.,
гПа
погр.,
м
17 апреля, сб
сб1723:00+5всв016357 0.0 101910
02:00+4зсз116998 0.0 101810
05:00+3сз2273100 0.0 101713
08:00+5сз3475100 0.0 1017128
11:00+11всв4657100 0.0 10171098
14:00+13всв6749100 0.0 10151477
17:00+13всв5647100 0.0 10141483
20:00+9в346798 0.0 101445
18 апреля, вс
вс1823:00+6ююв337192 0.0 101631
02:00+7зсз2272100 0.0 101627
05:00+7ссз2370100 0.0 101564
08:00+9ссв2574100 0.0 1015280
11:00+12св575979 0.0 10161495
14:00+14в565081 0.2 10151879
17:00+13вюв4453100 0.0 10141319
20:00+9юв3576100 0.0 101573
19 апреля, пн
пн1923:00+7ююв2382100 0.0 101636
02:00+7юв1183100 0.0 101610
05:00+7ссв1182100 0.0 101614
08:00+8всв1181100 0.0 1016128
11:00+12ююв0165100 0.0 1016855
14:00+14сз0155100 0.0 10141222
17:00+15ююв1250100 0.0 10131479
20:00+11ююв356916 0.0 101372
20 апреля, вт
вт2023:00+8ю3473100 0.0 101454
02:00+7ююз227710 0.0 101320
05:00+6з118274 0.0 101310
08:00+9з117666 0.0 101489
11:00+14зсз116116 0.0 1015762
14:00+17юз11484 0.2 10131716
17:00+18ююз12419 0.0 10122106
20:00+12юв487240 0.0 1013174
21 апреля, ср
ср2123:00+9юв228317 0.0 101520
02:00+8сз118921 0.3 101615
05:00+7зсз23945 0.1 101639
08:00+9зсз33867 0.1 1018167
11:00+15сз236834 0.0 1018941
14:00+17с336153 3.3 10181194
17:00+17св446014 1.1 10171275
20:00+11в468268 1.6 1018104